Tracking 31027 objects as of 19-Jul-2025
HD Live streaming from Space Station
objects crossing your sky now

STARLINK-31485

Track STARLINK-31485 now!
10-day predictions
STARLINK-31485 is classified as:


NORAD ID: 59308
Int'l Code: 2024-056N
Perigee: 489.3 km
Apogee: 491.2 km
Inclination: 43.0 °
Period: 94.3 minutes
Semi major axis: 6861 km
RCS: Unknown
Launch date: March 24, 2024
Source: United States (US)
Launch site: AIR FORCE EASTERN TEST RANGE (AFETR)
Your satellite tracking list
TITAN 3C TRANSTAGE DEB
Track 1 satellite(s)




NASA's NSSDC Master Catalog

Two Line Element Set (TLE):
1 59308U 24056N   25199.81794297  .00001126  00000-0  50458-4 0  9991
2 59308  43.0028 111.7492 0001376 255.8851 104.1848 15.27570572 75391
Source of the keplerian elements: AFSPC